Skip Page Navigation
NASA JPL Caltech
NASA Logo - Jet Propulsion Laboratory + View the NASA Portal
+ Center for Near-Earth Object Studies
JPL Home Earth Solar System Stars & Galaxies Technology
JPL Solar System Dynamics
BODIES ORBITS EPHEMERIDES TOOLS PHYSICAL DATA DISCOVERY FAQ SITE MAP
JPL Small-Body Database Browser
Search: [ help ]  
134729 (2000 AP92)
Classification: Main-belt Asteroid          SPK-ID: 2134729
Ephemeris | Orbit Diagram | Orbital Elements | Mission Design | Physical Parameters | Discovery Circumstances ]

[ show orbit diagram ]
Orbital Elements at Epoch 2459200.5 (2020-Dec-17.0) TDB
Reference: JPL 22 (heliocentric ecliptic J2000)
 Element Value Uncertainty (1-sigma)   Units 
e .2522150145402383 4.1459e-08  
a 2.346000593092497 9.8371e-09 au
q 1.754304019394265 1.0029e-07 au
i 22.85308463031543 6.2063e-06 deg
node 338.6700888538492 9.5945e-06 deg
peri 124.1721193368941 1.5247e-05 deg
M 272.6086376427641 1.2561e-05 deg
tp 2459519.107952861695
(2021-Oct-31.60795286)
4.6926e-05 TDB
period 1312.473680881039
3.59
8.2551e-06
2.26e-08
d
yr
n .2742912145547474 1.7252e-09 deg/d
Q 2.937697166790728 1.2318e-08 au
  Orbit Determination Parameters
   # obs. used (total)      986  
   data-arc span      12728 days (34.85 yr)  
   first obs. used      1986-03-03  
   last obs. used      2021-01-06  
   planetary ephem.      DE441  
   SB-pert. ephem.      SB441-N16  
   condition code      0  
   norm. resid. RMS      .4137  
   source      ORB  
   producer      Otto Matic  
   solution date      2021-Apr-13 18:09:40  

Additional Information
 Earth MOID = .845638 au 
 Jupiter MOID = 2.32362 au 
 T_jup = 3.415 
[ hide covariance matrix ]
Orbital Elements at Epoch 2457612.5 (2016-Aug-12.0) TDB
Reference: JPL 22 (heliocentric ecliptic J2000)
 Element Value Uncertainty (1-sigma)   Units 
e .252254838592019 4.1205e-08  
q 1.754509443573092 9.9599e-08 au
tp 2458204.405653961188
(2018-Mar-26.90565396)
4.2651e-05 TDB
node 338.8138138212356 9.6028e-06 deg
peri 123.7180826391057 1.525e-05 deg
i 22.82720478988032 6.2051e-06 deg
  Orbit Determination Parameters
   # obs. used (total)      986  
   data-arc span      12728 days (34.85 yr)  
   first obs. used      1986-03-03  
   last obs. used      2021-01-06  
   planetary ephem.      DE441  
   SB-pert. ephem.      SB441-N16  
   condition code      0  
   norm. resid. RMS      .4137  
   source      ORB  
   producer      Otto Matic  
   solution date      2021-Apr-13 18:09:40  

Additional Information
 Jupiter MOID = 2.32362 au 
 T_jup = 3.415 
Orbit Covariance (6×6)
  e q tp node peri i
e 1.697825006051873E-15 -4.094252040015695E-15 -3.434964663811018E-14 4.390285304570137E-15 9.9226282562168E-14 -1.07051454007939E-14
q -4.094252040015695E-15 9.919901777319719E-15 2.302725390033236E-13 -1.086868508943951E-14 -2.077988152043281E-13 2.813702927247329E-14
tp -3.434964663811018E-14 2.302725390033236E-13 1.819115301576464E-9 -7.919546306979724E-12 4.966342306853295E-10 2.393391454626683E-11
node 4.390285304570137E-15 -1.086868508943951E-14 -7.919546306979724E-12 9.221430934087756E-11 -8.631057654507298E-11 1.086034763471167E-11
peri 9.9226282562168E-14 -2.077988152043281E-13 4.966342306853295E-10 -8.631057654507298E-11 2.325642116041613E-10 -4.52900000886114E-12
i -1.07051454007939E-14 2.813702927247329E-14 2.393391454626683E-11 1.086034763471167E-11 -4.52900000886114E-12 3.85033273805261E-11

Ephemeris | Orbit Diagram | Orbital Elements | Mission Design | Physical Parameters | Discovery Circumstances ]

Physical Parameter Table
Parameter Symbol Value Units Sigma Reference Notes
absolute magnitude H 15.04   n/a E2021B55  

134729 (2000 AP92)          Discovered 2000-Jan-02 by LINEAR at Socorro
Reference: 20060907/Numbers.arcLast Updated: 2006-09-10

Alternate Designations
 2000 AP92 = 1986 EK = 1986 EO2 
Ephemeris | Orbit Diagram | Orbital Elements | Mission Design | Physical Parameters | Discovery Circumstances ]
ABOUT SSD CREDITS/AWARDS PRIVACY/COPYRIGHT GLOSSARY LINKS
FirstGov 2021-May-18 02:53 UT
(server date/time)  
NASA Home Page
Site Manager:   Ryan S. Park
Webmaster  Alan B. Chamberlin